EW0600 Weather Reports


Display with metric or nautical units.
time (UTC)temp
F
wind
direction
speed
MPH
gust
MPH
rain 1hr
in
rain 24hr
in
rain mn
in
humidity
%
barometer
mb
20260831083007 72 205 6.0 10.0 0.00 0.00 0.00 94 1002.8
20260831082241 73 188 5.0 9.0 0.00 0.00 0.00 94 1002.7
20260831081607 72 203 5.0 8.0 0.00 0.00 0.00 94 1002.7
20260831081231 73 193 4.0 9.0 0.00 0.00 0.00 94 1002.7
20260831080225 73 193 4.0 9.0 0.00 0.00 0.00 94 1002.7
20260831075230 73 208 4.0 8.0 0.00 0.00 0.00 93 1002.7
20260831074604 72 180 5.0 9.0 0.00 0.00 0.00 93 1002.7
20260831074226 73 201 5.0 9.0 0.00 0.00 0.00 93 1002.7
20260831073237 73 206 5.0 10.0 0.00 0.00 0.00 93 1002.6
20260831073009 72 149 6.0 11.0 0.00 0.00 0.00 93 1002.6
20260831072258 73 198 4.0 10.0 0.00 0.00 0.00 93 1002.6
20260831071603 72 205 4.0 9.0 0.00 0.00 0.00 93 1002.7
20260831071250 73 107 4.0 9.0 0.00 0.00 0.00 93 1002.7
20260831070308 72 156 3.0 9.0 0.00 0.00 0.00 93 1002.9
20260831070003 72 174 3.0 10.0 0.00 0.00 0.00 93 1003.0
20260831064603 72 129 3.0 8.0 0.00 0.00 0.00 93 1003.2
20260831064155 72 131 4.0 7.0 0.00 0.00 0.00 93 1003.2
20260831063208 72 158 3.0 6.0 0.00 0.00 0.00 93 1003.2
20260831063002 72 150 4.0 7.0 0.00 0.00 0.00 93 1003.3
20260831062143 72 143 3.0 9.0 0.00 0.00 0.00 93 1003.3
20260831061602 72 122 4.0 10.0 0.00 0.00 0.00 93 1003.4
20260831061108 72 154 2.0 9.0 0.00 0.00 0.00 93 1003.5
20260831060125 72 132 2.0 6.0 0.00 0.00 0.00 93 1003.6
20260831060004 72 146 2.0 6.0 0.00 0.00 0.00 93 1003.7
20260831055121 72 137 2.0 5.0 0.00 0.00 0.00 93 1003.7
20260831054603 72 127 2.0 6.0 0.00 0.00 0.00 93 1003.8
20260831053007 73 154 3.0 6.0 0.00 0.00 0.00 92 1003.8
20260831053003 72 154 3.0 7.0 0.00 0.00 0.00 92 1003.8
20260831052024 73 125 3.0 6.0 0.00 0.00 0.00 92 1003.9
20260831050002 73 109 2.0 8.0 0.00 0.00 0.00 92 1004.2
20260831045848 73 141 2.0 8.0 0.00 0.00 0.00 92 1004.1
20260831044834 73 109 3.0 8.0 0.00 0.00 0.00 92 1004.1
20260831044607 73 188 3.0 9.0 0.00 0.00 0.00 92 1004.1
20260831043849 73 122 3.0 6.0 0.00 0.00 0.00 92 1004.1
20260831043003 73 188 4.0 7.0 0.00 0.00 0.00 91 1004.3
20260831042908 73 120 3.0 8.0 0.00 0.00 0.00 91 1004.2
20260831041645 73 169 5.0 10.0 0.00 0.00 0.00 91 1004.2
20260831040003 73 158 4.0 14.0 0.00 0.00 0.00 91 1004.3
20260831035639 74 127 4.0 13.0 0.00 0.00 0.00 91 1004.1
20260831034606 73 155 6.0 12.0 0.00 0.00 0.00 91 1004.1
20260831033503 74 120 4.0 9.0 0.00 0.00 0.00 91 1004.1
20260831032511 74 229 4.0 9.0 0.00 0.00 0.00 91 1004.2
20260831031505 74 156 4.0 10.0 0.00 0.00 0.00 90 1004.3
20260831031448 74 190 5.0 9.0 0.00 0.00 0.00 90 1004.2
20260831030438 74 162 6.0 12.0 0.00 0.00 0.00 90 1004.1
20260831030108 74 135 6.0 13.0 0.00 0.00 0.00 90 1004.0
20260831025404 75 132 5.0 12.0 0.00 0.00 0.00 89 1003.9
20260831024502 74 152 6.0 12.0 0.00 0.00 0.00 89 1004.0
20260831024344 75 143 6.0 14.0 0.00 0.00 0.00 89 1004.0
20260831023346 75 152 6.0 14.0 0.00 0.00 0.00 88 1004.0
20260831023102 75 147 8.0 15.0 0.00 0.00 0.00 88 1004.2
20260831022339 75 155 5.0 14.0 0.00 0.00 0.00 87 1004.2
20260831021507 75 147 5.0 15.0 0.00 0.00 0.00 87 1004.1
20260831021353 76 151 6.0 14.0 0.00 0.00 0.00 87 1004.1
20260831020412 76 136 6.0 11.0 0.00 0.00 0.00 86 1004.1
20260831015419 76 129 4.0 11.0 0.00 0.00 0.00 86 1004.2
20260831014506 76 148 5.0 10.0 0.00 0.00 0.00 86 1004.2
20260831013307 77 137 4.0 10.0 0.00 0.00 0.00 85 1004.1
20260831013111 77 131 3.0 11.0 0.00 0.00 0.00 84 1004.1
20260831012318 78 145 5.0 10.0 0.00 0.00 0.00 84 1003.8
20260831011507 78 136 5.0 11.0 0.00 0.00 0.00 83 1003.9
20260831011317 78 140 4.0 10.0 0.00 0.00 0.00 82 1003.8
20260831010241 79 142 3.0 12.0 0.00 0.00 0.00 81 1003.8
20260831010122 78 136 4.0 9.0 0.00 0.00 0.00 80 1003.8
20260831005250 79 169 5.0 12.0 0.00 0.00 0.00 79 1003.7
20260831004502 80 171 4.0 13.0 0.00 0.00 0.00 77 1003.4
20260831003103 81 150 6.0 16.0 0.00 0.00 0.00 74 1003.6
20260831003056 81 117 6.0 15.0 0.00 0.00 0.00 74 1003.6
20260831002040 82 130 3.0 6.0 0.00 0.00 0.00 75 1003.4
20260831001502 82 98 3.0 9.0 0.00 0.00 0.00 75 1003.3
20260831001057 83 136 3.0 8.0 0.00 0.00 0.00 74 1003.1
20260831000116 82 121 4.0 10.0 0.00 0.00 0.00 74 1003.0
20260831000106 83 121 4.0 9.0 0.00 0.00 0.00 74 1003.0
20260830234502 84 131 4.0 12.0 0.00 0.00 0.00 73 1002.9
20260830234017 84 153 5.0 11.0 0.00 0.00 0.00 73 1002.8
20260830233102 84 169 4.0 11.0 0.00 0.00 0.00 73 1003.0
20260830233024 85 141 4.0 12.0 0.00 0.00 0.00 74 1003.0
20260830232008 85 120 6.0 13.0 0.00 0.00 0.00 72 1002.9
20260830231503 85 188 6.0 14.0 0.00 0.00 0.00 71 1003.0
20260830231007 86 129 6.0 13.0 0.00 0.00 0.00 71 1003.0
20260830230107 86 87 7.0 12.0 0.00 0.00 0.00 69 1003.0
20260830230021 86 143 5.0 15.0 0.00 0.00 0.00 70 1003.0
20260830225020 86 141 6.0 15.0 0.00 0.00 0.00 72 1003.0
20260830224503 86 143 8.0 16.0 0.00 0.00 0.00 72 1003.0
20260830223959 87 202 6.0 13.0 0.00 0.00 0.00 72 1002.9
20260830223133 86 142 8.0 15.0 0.00 0.00 0.00 71 1002.7
20260830221919 87 167 6.0 15.0 0.00 0.00 0.00 70 1002.7
20260830221606 87 212 6.0 14.0 0.00 0.00 0.00 70 1002.8
20260830220905 87 184 6.0 17.0 0.00 0.00 0.00 71 1002.8
20260830220003 87 150 4.0 18.0 0.00 0.00 0.00 71 1002.8
20260830215858 87 146 6.0 17.0 0.00 0.00 0.00 71 1002.7
20260830214850 87 96 8.0 13.0 0.00 0.00 0.00 74 1002.7
20260830214602 86 122 9.0 14.0 0.00 0.00 0.00 72 1002.7
20260830213900 87 73 7.0 15.0 0.00 0.00 0.00 73 1002.8
20260830213007 86 104 7.0 16.0 0.00 0.00 0.00 72 1002.8
20260830211708 86 103 8.0 15.0 0.00 0.00 0.00 73 1002.8
20260830211607 86 126 8.0 16.0 0.00 0.00 0.00 72 1002.8
20260830210722 86 82 8.0 16.0 0.00 0.00 0.00 73 1003.0
20260830210002 86 102 9.0 17.0 0.00 0.00 0.00 72 1003.1
20260830205711 86 89 9.0 16.0 0.00 0.00 0.00 73 1003.0
20260830204721 86 77 7.0 15.0 0.00 0.00 0.00 77 1003.1
20260830204603 85 85 9.0 14.0 0.00 0.00 0.00 78 1003.1
20260830203003 84 91 9.0 15.0 0.00 0.00 0.00 79 1003.5
20260830202522 84 155 9.0 16.0 0.00 0.00 0.00 78 1003.5
20260830201603 83 103 10.0 17.0 0.00 0.00 0.00 79 1003.7
20260830201456 84 94 9.0 16.0 0.00 0.00 0.00 78 1003.6
20260830200002 83 95 7.0 17.0 0.00 0.00 0.00 80 1003.9
20260830195347 83 89 10.0 16.0 0.00 0.00 0.00 80 1003.7
20260830194609 82 68 12.0 17.0 0.00 0.00 0.00 80 1003.8
20260830193154 82 89 8.0 15.0 0.00 0.00 0.00 81 1003.9
20260830193003 82 128 7.0 16.0 0.00 0.00 0.00 81 1004.0
20260830191602 82 65 8.0 13.0 0.00 0.00 0.00 82 1003.9
20260830191023 82 84 7.0 15.0 0.00 0.00 0.00 81 1003.7
20260830190015 82 94 9.0 15.0 0.00 0.00 0.00 80 1003.7
20260830190003 81 114 9.0 16.0 0.00 0.00 0.00 80 1003.8
20260830185030 82 67 7.0 14.0 0.00 0.00 0.00 82 1003.8
20260830184618 81 63 8.0 15.0 0.00 0.00 0.00 81 1003.8
20260830184037 81 112 8.0 16.0 0.00 0.00 0.00 81 1003.9
20260830183025 80 70 8.0 16.0 0.00 0.00 0.00 82 1004.0
20260830183003 80 88 11.0 17.0 0.00 0.00 0.00 82 1004.2
20260830182044 80 106 9.0 16.0 0.00 0.00 0.00 83 1004.1
20260830181604 79 114 9.0 17.0 0.00 0.00 0.00 83 1004.4
20260830181017 80 77 8.0 15.0 0.00 0.00 0.00 83 1004.6
20260830180002 79 97 8.0 16.0 0.00 0.00 0.00 83 1004.6
20260830174926 79 92 10.0 17.0 0.00 0.00 0.00 84 1004.4
20260830174605 78 98 10.0 18.0 0.00 0.00 0.00 84 1004.5
20260830173920 78 91 10.0 18.0 0.00 0.00 0.00 85 1004.7
20260830173002 78 72 12.0 19.0 0.00 0.00 0.00 85 1005.0
20260830171702 78 99 7.0 12.0 0.00 0.00 0.00 86 1005.2
20260830171638 77 110 7.0 13.0 0.00 0.00 0.00 86 1005.3
20260830170710 77 96 6.0 11.0 0.00 0.00 0.00 87 1005.2
20260830170004 76 150 7.0 12.0 0.00 0.00 0.00 87 1005.4
20260830165724 76 97 5.0 11.0 0.00 0.00 0.00 87 1005.4
20260830164708 76 90 6.0 11.0 0.00 0.00 0.00 88 1005.1
20260830164604 75 78 6.0 12.0 0.00 0.00 0.00 88 1005.1
20260830163643 76 92 7.0 13.0 0.00 0.00 0.00 87 1005.2
20260830163003 76 95 7.0 14.0 0.00 0.00 0.00 87 1005.3
20260830162625 76 101 7.0 14.0 0.00 0.00 0.00 87 1005.3
20260830161622 76 107 8.0 15.0 0.00 0.00 0.00 87 1005.0
20260830161602 75 101 10.0 15.0 0.00 0.00 0.00 87 1005.0
20260830160552 76 66 9.0 15.0 0.00 0.00 0.00 87 1004.6
20260830160002 76 79 10.0 14.0 0.00 0.00 0.00 86 1004.5
20260830155529 76 79 7.0 13.0 0.00 0.00 0.00 87 1004.3
20260830154602 76 77 6.0 11.0 0.00 0.00 0.00 89 1004.4
20260830154525 76 74 6.0 10.0 0.00 0.00 0.00 89 1004.4
20260830153456 75 53 8.0 13.0 0.00 0.00 0.00 89 1004.3
20260830153002 74 71 9.0 14.0 0.00 0.00 0.00 88 1004.4
20260830152422 75 64 6.0 12.0 0.00 0.00 0.00 87 1004.3
20260830151611 74 76 5.0 12.0 0.00 0.00 0.00 89 1004.3
20260830151418 75 50 7.0 11.0 0.00 0.00 0.00 90 1004.2
20260830150346 74 63 6.0 10.0 0.00 0.00 0.00 89 1004.4
20260830150002 73 72 8.0 11.0 0.00 0.00 0.00 89 1004.4
20260830145358 74 63 5.0 9.0 0.00 0.00 0.00 89 1004.6
20260830144603 73 93 5.0 10.0 0.00 0.00 0.00 91 1004.6
20260830144420 73 93 4.0 9.0 0.00 0.00 0.00 91 1004.6
20260830143347 72 82 5.0 9.0 0.00 0.00 0.00 92 1004.6
20260830143002 71 77 5.0 10.0 0.00 0.00 0.00 93 1004.7
20260830141605 70 75 7.0 9.0 0.00 0.00 0.00 93 1004.6
20260830141242 70 70 5.0 8.0 0.00 0.00 0.00 94 1004.5
20260830140300 69 70 4.0 7.0 0.00 0.00 0.00 94 1004.8
20260830140003 69 69 5.0 8.0 0.00 0.00 0.00 94 1004.9
20260830134602 68 79 4.0 6.0 0.00 0.00 0.00 95 1004.9
20260830134113 69 70 2.0 4.0 0.00 0.00 0.00 95 1004.9
20260830133004 68 78 2.0 4.0 0.00 0.00 0.00 95 1005.0
20260830131503 68 102 2.0 4.0 0.00 0.00 0.00 95 1005.0
20260830130114 67 75 1.0 4.0 0.00 0.00 0.00 96 1004.7
20260830125758 67 72 2.0 5.0 0.00 0.00 0.00 96 1004.6
20260830124728 67 75 3.0 5.0 0.00 0.00 0.00 96 1004.6
20260830124505 67 80 3.0 6.0 0.00 0.00 0.00 96 1004.7
20260830123658 67 72 4.0 7.0 0.00 0.00 0.00 96 1004.5
20260830123103 66 73 3.0 8.0 0.00 0.00 0.00 96 1004.4
20260830122702 67 75 4.0 7.0 0.00 0.00 0.00 96 1004.2
20260830121502 66 71 3.0 6.0 0.00 0.00 0.00 96 1004.6
20260830120602 66 94 2.0 4.0 0.00 0.00 0.00 96 1004.5
20260830115614 66 82 3.0 4.0 0.00 0.00 0.00 96 1004.2
20260830114502 65 82 3.0 5.0 0.00 0.09 0.00 96 1004.3
20260830113102 65 74 2.0 5.0 0.00 0.09 0.00 96 1004.4
20260830112301 66 74 3.0 6.0 0.00 0.04 0.00 96 1004.3
20260830111503 65 72 4.0 6.0 0.00 0.09 0.00 96 1004.3
20260830111316 66 67 1.0 5.0 0.00 0.06 0.00 96 1004.2
20260830110338 66 75 0.0 0.0 0.00 0.08 0.00 96 1004.5
20260830110103 65 75 0.0 5.0 0.00 0.09 0.00 96 1004.5
20260830105352 66 71 1.0 4.0 0.00 0.11 0.00 95 1004.3
20260830104504 65 73 1.0 3.0 0.00 0.22 0.00 96 1004.5
20260830104406 66 73 0.0 3.0 0.00 0.13 0.00 96 1004.5
20260830103343 66 75 2.0 3.0 0.00 0.14 0.00 95 1004.6
20260830103102 65 75 2.0 4.0 0.00 0.22 0.00 95 1004.7
20260830101502 66 73 0.0 4.0 0.00 0.22 0.00 95 1004.6
20260830101147 67 73 2.0 3.0 0.00 0.20 0.00 95 1004.6
20260830100152 67 84 0.0 1.0 0.00 0.22 0.00 95 1004.6
20260830100109 66 84 0.0 1.0 0.00 0.22 0.00 95 1004.7
20260830095138 67 84 0.0 0.0 0.00 0.25 0.00 95 1004.6
20260830094502 66 84 0.0 5.0 0.00 0.38 0.00 95 1004.6
20260830094129 67 84 2.0 4.0 0.00 0.28 0.00 95 1004.4
20260830093110 67 77 2.0 3.0 0.00 0.29 0.00 95 1004.3
20260830093102 66 77 3.0 4.0 0.00 0.38 0.00 95 1004.3
20260830091503 66 79 1.0 5.0 0.00 0.38 0.00 95 1004.4
20260830090921 67 70 2.0 4.0 0.00 0.36 0.00 95 1004.1
20260830090104 66 79 2.0 3.0 0.00 0.38 0.00 95 1004.5
20260830085918 67 79 1.0 2.0 0.00 0.38 0.00 95 1004.5
20260830084918 67 80 0.0 1.0 0.00 0.39 0.00 94 1004.6
20260830084506 67 81 1.0 4.0 0.00 0.40 0.00 94 1004.6
20260830083104 67 72 1.0 4.0 0.00 0.40 0.00 94 1004.6